CT1ETE Weather Reports


time (UTC)temp
C
wind
direction
speed
KPH
gust
KPH
rain 1hr
cm
rain 24hr
cm
rain mn
cm
humidity
%
barometer
mb
20260507040815 10 109 1.6 4.8 0.00 0.03 0.00 85 1009.6
20260507035315 10 109 0.0 3.2 0.00 0.03 0.00 85 1009.7
20260507035216 10 109 0.0 4.8 0.00 0.03 0.00 85 1009.7
20260507032315 10 109 3.2 6.4 0.00 0.03 0.00 84 1009.7
20260507031531 10 109 3.2 6.4 0.00 0.03 0.00 85 1009.7
20260507025313 10 109 0.0 6.4 0.00 0.03 0.00 84 1009.8
20260507024518 10 109 0.0 0.0 0.00 0.03 0.00 84 1009.8
20260507022314 10 109 0.0 0.0 0.00 0.03 0.00 84 1010.0
20260507020811 10 109 0.0 0.0 0.00 0.03 0.00 83 1010.1
20260507020711 11 109 0.0 0.0 0.00 0.03 0.00 83 1010.1
20260507013811 11 109 0.0 0.0 0.00 0.03 0.00 83 1010.2
20260507013708 11 109 0.0 0.0 0.00 0.03 0.00 83 1010.4
20260507010809 11 109 0.0 4.8 0.00 0.03 0.00 83 1010.3
20260507010004 11 109 3.2 6.4 0.00 0.03 0.00 84 1010.3
20260507003805 10 109 6.4 11.3 0.00 0.03 0.00 84 1010.4
20260507002306 11 174 4.8 9.7 0.00 0.03 0.00 84 1010.5
20260507000805 10 175 1.6 6.4 0.00 0.03 0.00 84 1010.6
20260506235306 11 175 3.2 8.0 0.00 0.03 0.00 83 1010.7
20260506233802 11 175 3.2 9.7 0.00 0.03 0.00 81 1010.7
20260506232306 11 176 3.2 6.4 0.00 0.03 0.00 80 1010.8
20260506230801 11 176 3.2 6.4 0.00 0.03 0.00 81 1010.7
20260506225301 11 225 1.6 4.8 0.00 0.03 0.03 81 1010.8
20260506223801 12 225 1.6 3.2 0.00 0.03 0.03 80 1010.9
20260506222259 12 225 0.0 3.2 0.00 0.03 0.03 80 1011.0
20260506220759 12 225 3.2 4.8 0.00 0.03 0.03 81 1011.2
20260506215305 12 227 3.2 3.2 0.00 0.03 0.03 81 1011.2
20260506213752 12 227 0.0 3.2 0.00 0.03 0.03 80 1011.1
20260506212253 12 227 0.0 3.2 0.00 0.03 0.03 80 1011.2
20260506210753 12 227 0.0 4.8 0.00 0.03 0.03 79 1011.3
20260506205253 12 227 4.8 8.0 0.00 0.03 0.03 77 1011.3
20260506203752 13 226 6.4 8.0 0.00 0.03 0.03 77 1011.3
20260506202947 13 225 4.8 9.7 0.00 0.03 0.03 76 1011.2
20260506200752 13 259 3.2 11.3 0.00 0.03 0.03 76 1011.2
20260506195253 13 259 6.4 12.9 0.00 0.03 0.03 75 1011.1
20260506193750 13 254 6.4 11.3 0.00 0.03 0.03 75 1011.0
20260506192251 14 299 8.0 16.1 0.00 0.03 0.03 73 1010.9
20260506190750 14 271 8.0 14.5 0.00 0.03 0.03 72 1010.8
20260506185250 15 252 6.4 14.5 0.00 0.03 0.03 70 1010.8
20260506183750 15 280 4.8 14.5 0.00 0.03 0.03 70 1010.9
20260506182250 15 247 6.4 16.1 0.00 0.03 0.03 69 1011.0
20260506180750 15 276 12.9 20.9 0.00 0.03 0.03 69 1011.0
20260506175251 16 275 14.5 24.1 0.00 0.03 0.03 68 1010.9
20260506173750 16 271 11.3 20.9 0.00 0.03 0.03 67 1010.9
20260506172250 16 230 9.7 19.3 0.00 0.03 0.03 64 1010.9
20260506170750 16 279 9.7 17.7 0.00 0.03 0.03 61 1010.9
20260506165251 16 303 8.0 19.3 0.00 0.03 0.03 60 1011.0
20260506163749 16 302 9.7 19.3 0.00 0.03 0.03 60 1011.2
20260506162950 17 253 4.8 12.9 0.00 0.03 0.03 56 1011.1
20260506160751 17 250 4.8 12.9 0.00 0.03 0.03 59 1011.2
20260506155251 16 280 6.4 14.5 0.00 0.03 0.03 60 1011.3
20260506154442 16 261 9.7 19.3 0.00 0.03 0.03 59 1011.3
20260506152250 17 290 8.0 19.3 0.00 0.03 0.03 58 1011.5
20260506150750 17 350 9.7 17.7 0.00 0.03 0.03 56 1011.6
20260506145250 17 355 8.0 20.9 0.00 0.03 0.03 54 1011.8
20260506143750 18 350 11.3 20.9 0.00 0.03 0.03 51 1012.0
20260506142248 20 288 4.8 16.1 0.00 0.03 0.03 48 1012.1
20260506140748 19 244 11.3 19.3 0.00 0.05 0.03 49 1012.4
20260506135248 20 315 8.0 14.5 0.00 0.08 0.03 49 1012.6
20260506134436 19 291 4.8 14.5 0.00 0.15 0.03 47 1012.7
20260506132247 19 235 6.4 16.1 0.00 0.15 0.03 50 1012.8
20260506130748 18 332 4.8 14.5 0.00 0.15 0.03 54 1013.0
20260506125246 17 311 4.8 9.7 0.00 0.15 0.03 55 1013.2
20260506123745 16 339 6.4 14.5 0.00 0.15 0.03 57 1013.3
20260506122943 17 5 6.4 14.5 0.00 0.15 0.03 54 1013.4
20260506120746 18 238 6.4 16.1 0.00 0.15 0.03 56 1013.5
20260506115245 17 252 4.8 16.1 0.00 0.15 0.03 58 1013.5
20260506113744 17 274 4.8 14.5 0.03 0.15 0.03 55 1013.8
20260506112243 16 312 4.8 11.3 0.03 0.15 0.03 58 1013.9
20260506110744 16 296 4.8 12.9 0.03 0.15 0.03 59 1014.0
20260506105244 16 225 6.4 16.1 0.03 0.15 0.03 63 1014.1
20260506104436 16 200 3.2 9.7 0.00 0.13 0.00 65 1014.1
20260506102243 15 323 4.8 14.5 0.00 0.13 0.00 66 1014.3
20260506100743 16 286 4.8 14.5 0.00 0.13 0.00 69 1014.3
20260506095243 15 246 3.2 9.7 0.00 0.13 0.00 71 1014.4
20260506093743 15 236 6.4 12.9 0.00 0.13 0.00 71 1014.4
20260506092241 15 242 6.4 12.9 0.00 0.13 0.00 75 1014.4
20260506090740 14 221 6.4 12.9 0.00 0.13 0.00 78 1014.5
20260506085239 14 251 3.2 8.0 0.00 0.13 0.00 77 1014.5
20260506083739 13 289 1.6 6.4 0.00 0.13 0.00 80 1014.5
20260506082939 13 255 3.2 6.4 0.00 0.13 0.00 82 1014.5
20260506081429 12 248 3.2 6.4 0.00 0.13 0.00 82 1014.5
20260506072231 11 115 4.8 11.3 0.00 0.13 0.00 85 1014.4
20260506070731 11 110 6.4 11.3 0.00 0.13 0.00 86 1014.5
20260506062227 9 115 4.8 6.4 0.00 0.13 0.00 75 1014.3
20260506060727 8 115 4.8 9.7 0.00 0.13 0.00 79 1014.2
20260506050723 8 115 0.0 1.6 0.00 0.13 0.00 81 1014.1
20260506043721 8 115 0.0 0.0 0.00 0.13 0.00 82 1014.1
20260506042221 8 115 0.0 4.8 0.00 0.13 0.00 83 1014.1